Location: Cosy Dell
(34.2789°N, 117.4537°W)
Time: 20:48:07
(UTC+00:00)

Geosat - Pass Details

Date: 14 July 2020
Orbit: 763 x 766 km, 108.0° (Epoch: 13 August)

Event Time Altitude Azimuth Distance (km) Brightness Sun altitude
Exits shadow 04:36:10 27° 118° (ESE) 1,430 4.8 -16.7°
Maximum altitude 04:38:29 46° 61° (ENE) 1,014 4.5 -17.1°
Drops below altitude 10° 04:43:17 10° 349° (NNW) 2,306 7.3 -17.8°
Sets 04:45:38 0° 343° (NNW) 3,236 8.3 -18.1°
